Reflectivity
-20 -20 -20 -20 -20 -20 -20 -20 -20 -20 -20 -20 -20 -20 1 11 -20 -20 -20 -20 -20 -20 -20 -20 -20 -20 -20 -20 -20 -20 -20 -20 -20 -20 -20 -20 -20 -20 -20 -20 -20 -20 -20 -20 -20
-20 -20 -20 -20 -20 -20 -20 -20 -20 -20 -20 -20 -20 -20 -18 7 -20 -20 -20 -20 -20 -20 -20 -20 -20 -20 -20 -20 -20 -20 -20 -20 -20 -20 -20 -20 -20 -20 -20 -20 -20 -20 -20 -20 -20
-20 -20 -20 -20 -20 -20 -20 -20 -20 -20 -20 -20 -20 -20 -11 -17 -20 -20 -20 -20 -20 -20 -20 -20 -20 -20 -20 -20 -20 -20 -20 -20 -20 -20 -20 -20 -20 -20 -20 -20 -20 -20 -20 -20 -20
-20 -20 -20 -20 -20 -20 -20 -20 -20 -20 -20 -20 -20 -20 -19 -20 -20 -20 -20 -20 -20 -20 -20 -20 -20 -20 -20 -20 -20 -20 -20 -20 -20 -20 -20 -20 -20 -20 -20 -20 -20 -20 -20 -20 -20
-20 -20 -20 -20 -20 -20 -20 -20 -20 -20 -20 -20 -20 -16 -17 -20 -20 -20 -20 -20 -20 -20 -20 -20 -20 -20 -20 -20 -20 -20 -20 -20 -20 -20 -20 -20 -20 -20 -20 -20 -20 -20 -20 -20 -20
-20 -20 -20 -20 -20 -20 -20 -20 -20 -20 -20 -20 -20 6 -20 -20 -20 -20 -20 -20 -20 -20 -20 -20 -20 -20 -20 -20 -20 -20 -20 -20 -20 -20 -20 -20 -20 -20 -20 -20 -20 -20 -20 -20 -20
-20 -20 -20 -20 -20 -20 -20 -20 -20 -20 -20 -20 2 -19 -20 -20 -20 -20 -20 -20 -20 -20 -20 -20 -20 -20 -20 -20 -20 -20 -20 -20 -20 -20 -20 -20 -20 -20 -20 -20 -20 -20 -20 -20 -20
-20 -20 -20 -20 -20 -20 -20 -20 -20 -20 -20 -20 7 -20 -20 -20 -20 -20 -20 -20 -20 -20 -20 -20 -20 -20 -20 -20 -20 -20 -20 -20 -20 -20 -20 -20 -20 -20 -20 -20 -20 -20 -20 -20 -20
-20 -20 -20 -20 -20 -20 -20 -20 -20 8 -20 -15 -17 -20 -20 -20 -20 -20 -20 -20 -20 -20 -20 -20 -20 -20 -20 -20 -20 -20 -20 -20 -20 -20 -20 -20 -20 -20 -20 -20 -20 -20 -20 -20 -20
-20 -20 -20 -20 -20 -20 -20 -20 -20 -11 -18 -20 -20 -20 -20 -20 -20 -20 -20 -20 -20 -20 -20 -20 -20 -20 -20 -20 -20 -20 -20 -20 -20 -20 -20 -20 -20 -20 -20 -20 -20 -20 -20 -20 -20
-20 -20 -20 -20 -20 -20 -20 -20 -20 -20 -20 -20 -20 -20 -20 -20 -20 -20 -20 -20 -20 -20 -20 -20 -20 -20 -20 -20 -20 -20 -20 -20 -20 -20 -20 -20 -20 -20 -20 -20 -20 -20 -20 -20 -20
-20 -20 -11 -20 -20 -20 -20 -20 -20 -20 -20 -20 -20 -20 -20 -20 -20 -20 -20 -20 -20 -20 -20 -20 -20 -20 -20 -20 -20 -20 -20 -20 -20 -20 -20 -20 -20 -20 -20 -20 -20 -20 -20 -20 -20
-20 -20 -8 -20 -20 -20 -20 -20 -20 -20 -20 -20 -20 -20 -20 -20 -20 -20 -20 -20 -20 -20 -20 -20 -20 -20 -20 -20 -20 -20 -20 -20 -20 -20 -20 -20 -20 -20 -20 -20 -20 -20 -20 -20 -20
-20 -20 -11 -20 -20 -20 -20 -20 -20 -20 -20 -20 -20 -20 -20 -20 -20 -20 -20 -20 -20 -20 -20 -20 -20 -20 -20 -20 -20 -20 -20 -20 -20 -20 -20 -20 -20 -20 -20 -20 -20 -20 -20 -20 -20
-20 -20 -14 -10 -20 -20 -20 -20 -20 -20 -20 -20 -20 -20 -20 -20 -20 -20 -20 -20 -20 -20 -20 -20 -20 -20 -20 -20 -20 -20 -20 -20 -20 -20 -20 -20 -20 -20 -20 -20 -20 -20 -20 -20 -20
-20 -20 -1 -20 -20 -20 -20 -20 -20 -20 -20 -20 -20 -20 -20 -20 -20 -20 -20 -20 -20 -20 -20 -20 -20 -20 -20 -20 -20 -20 -20 -20 -20 -20 -20 -20 -20 -20 -20 -20 -20 -20 -20 -20 -20
-20 -20 -20 -20 -20 -20 -20 -20 -20 -20 -20 -20 -20 -20 -20 -20 -20 -20 -20 -20 -20 -20 -20 -20 -20 -20 -20 -20 -20 -20 -20 -20 -20 -20 -20 -20 -20 -20 -20 -20 -20 -20 -20 -20 -20
-20 -20 -20 -20 -20 -20 -20 -20 -20 -20 -20 -20 -20 -20 -20 -20 -20 -20 -20 -20 -20 -20 -20 -20 -20 -20 -20 -20 -20 -20 -20 -20 -20 -20 -20 -20 -20 -20 -20 -20 -20 -20 -20 -20 -20
-20 -20 -20 -20 -20 -20 -20 -20 -20 -20 -20 -20 -20 -20 -20 -20 -20 -20 -20 -20 -20 -20 -20 -20 -20 -20 -20 -20 -20 -20 -20 -20 -20 -20 -20 -20 -20 -20 -20 -20 -20 -20 -20 -20 -20
-20 -20 -20 -20 -20 -20 -20 -20 -20 -20 -20 -20 -20 -20 -20 -20 -20 -20 -20 -20 -20 -20 -20 -20 -20 -20 -20 -20 -20 -20 -20 -20 -20 -20 -20 -20 -20 -20 -20 -20 -20 -20 -20 -20 -20
-20 -20 -20 -20 -20 -20 -20 -20 -20 -20 -20 -20 -20 -20 -20 -20 -20 -20 -20 -20 -20 -20 -20 -20 -20 -20 -20 -20 -20 -20 -20 -20 -20 -20 -20 -20 -20 -20 -20 -20 -20 -20 -20 -20 -20
-20 -20 -20 -20 -20 -20 -20 -20 -20 -20 -20 -20 -20 -20 -20 -20 -20 -20 -20 -20 -20 -20 -20 -20 -20 -20 -20 -20 -20 -20 -20 -20 -20 -20 -20 -20 -20 -20 -20 -20 -20 -20 -20 -20 -20
-20 -20 -20 -20 -20 -20 -20 -20 -20 -20 -20 -20 -20 -20 -20 -20 -20 -20 -20 -20 -20 -20 -20 -20 -20 -20 -20 -20 -20 -20 -20 -20 -20 -20 -20 -20 -20 -20 -20 -20 -20 -20 -20 -20 -20
-20 -20 -20 -20 -20 -20 -20 -20 -20 -20 -20 -20 -20 -20 -20 -20 -20 -20 -20 -20 -20 -20 -20 -20 -20 -20 -20 -20 -20 -20 -20 -20 -20 -20 -20 -20 -20 -20 -20 -20 -20 -20 -20 -20 -20
-19 -20 -20 -20 -20 -20 -20 -20 -20 -20 -20 -20 -20 -20 -20 -20 -20 -20 -20 -20 -20 -20 -20 -20 -20 -20 -20 -20 -20 -20 -20 -20 -20 -20 -20 -20 -20 -20 -20 -20 -20 -20 -20 -20 -20
-1 -20 -20 -20 -20 -20 -20 -20 -20 -20 -20 -20 -20 -20 -20 -20 -20 -20 -20 -20 3 -20 -20 -20 -20 -20 -20 -20 -20 -20 -20 -20 -20 -20 -20 -20 -20 -20 -20 -20 -20 -20 -20 -20 -20
-20 -20 -2 -20 -20 -20 -20 -20 -20 -20 -20 -20 -20 -20 -20 -20 -20 -20 -20 -19 -17 -17 -20 8 -20 -20 -20 -20 -20 -20 -20 -20 -20 -20 -20 -20 -20 -20 -20 -20 -20 -20 -20 -20 -20
Wind_Speed
22 22 22 22 21 21 20 18 17 18 18 19 18 18 19 19 18 2 8 11 9 14 11 10 3 4 5 3 6 3 3 3 7 9 5 6 4 4 5 10 3 5 6 11 17
22 23 22 22 23 22 21 20 18 18 18 18 18 17 17 17 4 8 14 12 9 18 8 10 7 6 2 4 3 4 2 8 8 6 9 11 8 9 5 9 2 7 13 18 17
22 23 23 23 22 23 22 21 21 19 18 17 17 16 15 11 5 9 5 11 12 11 8 8 5 9 5 3 4 5 7 5 5 7 15 11 8 5 10 6 6 14 20 20 18
23 23 24 24 23 23 22 23 22 20 18 17 15 14 14 3 8 1 2 4 16 6 6 6 5 7 5 6 5 3 8 8 7 8 12 14 9 6 11 6 7 14 20 19 18
23 24 24 24 25 24 23 22 22 22 18 16 13 10 4 0 14 5 7 4 10 11 10 8 7 7 6 5 4 6 4 9 9 11 11 13 7 5 7 4 14 18 18 17 15
23 23 24 24 25 25 24 22 22 22 20 14 9 4 2 5 5 2 6 5 7 7 8 8 8 7 5 4 5 3 3 9 7 8 5 10 5 9 4 13 14 17 17 16 16
24 23 23 24 25 26 26 24 25 24 20 10 3 3 1 20 3 5 2 4 5 6 7 4 3 4 3 1 3 5 7 9 4 4 5 12 2 7 10 15 16 15 14 14 14
25 25 24 25 26 27 26 26 26 23 12 5 8 2 9 5 2 7 4 3 4 5 4 5 3 2 3 1 5 3 6 6 5 7 8 6 7 3 14 17 17 15 14 14 14
24 25 26 26 25 25 28 28 25 7 4 9 4 3 11 7 4 3 5 4 7 4 5 4 6 3 2 6 5 3 7 4 3 6 7 3 4 8 13 14 15 15 15 14 13
24 25 26 26 27 26 29 25 6 2 3 4 3 1 5 4 3 2 2 5 2 6 4 3 4 4 4 5 6 6 6 3 7 10 8 6 4 12 14 14 16 16 14 15 15
24 24 26 27 27 24 17 5 4 2 2 7 5 5 10 7 5 3 4 4 3 4 6 5 5 8 10 9 8 8 7 17 1 3 3 5 5 15 16 13 14 14 14 15 16
24 24 25 28 27 26 2 4 4 2 12 12 20 16 15 3 6 11 8 6 4 6 2 3 9 9 8 6 9 10 7 10 2 4 5 2 3 10 16 18 17 15 15 14 14
25 25 24 29 31 3 2 5 4 3 3 12 7 7 7 14 14 18 10 5 5 7 4 6 4 11 8 5 7 5 11 7 15 6 4 7 3 7 11 8 11 12 12 13 15
25 25 25 27 3 4 5 2 6 2 4 10 5 7 4 8 6 14 11 8 5 12 8 7 7 9 9 11 8 7 9 8 9 10 7 6 6 8 11 17 14 17 16 16 16
25 24 22 10 6 5 1 7 6 2 6 5 4 2 4 8 3 6 7 5 9 7 7 8 5 8 5 8 9 10 8 11 8 8 6 1 3 7 14 12 22 22 19 19 19
24 27 21 1 3 11 9 6 2 6 10 7 3 1 4 2 6 3 6 4 7 6 3 10 4 8 12 5 10 10 8 7 5 5 2 9 9 6 8 25 25 18 20 21 18
27 29 17 4 7 3 5 4 3 6 4 4 2 3 3 6 6 3 8 7 7 7 6 2 7 4 4 5 1 7 7 3 3 2 7 3 4 13 11 16 25 23 24 22 19
29 30 6 7 4 3 3 5 6 6 9 5 4 4 2 5 6 6 5 5 3 6 5 7 7 8 4 8 9 6 11 8 7 5 5 4 9 13 21 13 8 8 18 15 18
27 4 4 5 9 3 6 4 10 8 5 2 5 2 3 5 4 3 4 9 11 11 12 8 9 5 4 6 11 5 4 8 8 2 3 5 9 9 6 7 8 14 13 18 20
8 6 5 1 8 4 5 7 7 6 3 3 2 3 1 3 6 6 3 5 6 12 7 9 1 9 8 3 4 11 10 4 3 6 5 5 4 8 6 11 9 8 17 19 18
3 5 3 1 1 5 5 9 8 8 4 4 4 1 1 2 5 4 6 6 5 5 9 7 6 7 7 12 15 3 4 5 6 5 8 4 9 10 11 12 12 15 19 19 17
3 4 2 3 2 1 4 7 5 4 2 4 1 5 7 6 5 7 9 9 6 6 6 11 11 10 13 4 6 11 12 10 8 7 3 5 9 5 13 6 8 12 14 8 12
5 5 6 3 3 3 5 5 3 3 4 2 4 7 4 6 4 8 9 9 13 8 7 7 5 10 7 6 1 5 5 6 5 5 9 7 8 2 4 7 8 11 10 10 11
4 5 5 3 0 2 5 5 4 5 6 6 6 4 3 5 6 7 4 3 4 3 16 14 6 12 17 15 6 6 7 7 8 6 7 8 7 6 9 9 8 9 8 10 12
2 4 1 5 2 3 3 4 4 5 3 3 4 7 10 8 7 9 10 13 4 3 6 4 12 9 20 9 8 8 8 10 9 7 8 10 11 12 13 14 14 13 6 8 9
3 3 5 4 5 4 2 3 4 4 3 6 6 8 9 10 11 9 9 7 5 3 5 4 7 6 17 13 11 10 8 9 7 4 7 2 9 10 2 5 6 11 10 11 12
2 3 2 4 4 2 4 1 6 11 9 12 8 7 11 9 7 10 7 6 7 8 2 3 1 4 12 7 6 4 17 9 7 6 10 9 14 7 6 9 10 10 13 16 16
Wind_Direction
354 351 348 345 344 343 341 339 335 330 328 324 324 324 325 326 318 216 243 211 189 161 110 130 137 166 150 229 191 165 90 162 192 155 185 156 119 159 105 140 212 161 148 141 149
352 349 346 343 340 339 337 333 332 329 326 324 323 325 326 333 299 254 238 197 178 149 136 152 175 159 204 233 204 136 146 208 182 170 164 156 155 152 132 168 96 92 113 135 148
349 347 344 341 338 335 332 330 327 327 324 322 321 323 326 332 320 251 340 197 176 170 134 169 141 151 201 185 215 194 217 167 179 169 149 147 155 169 144 230 204 161 151 153 156
347 344 341 339 337 333 329 325 323 321 321 318 319 321 321 307 298 69 60 183 183 158 138 147 154 146 184 198 201 193 251 153 163 155 148 159 131 153 166 217 171 162 155 157 163
343 340 338 336 334 330 325 321 318 317 316 314 314 320 322 245 247 290 328 103 138 151 175 160 151 155 185 193 180 220 213 160 164 161 154 128 157 162 188 127 132 144 153 165 171
341 338 335 334 332 328 323 319 316 315 311 306 302 304 267 251 234 60 45 136 148 126 169 157 183 194 169 205 150 269 156 145 123 114 107 121 136 118 199 137 140 153 165 172 177
338 338 334 331 331 326 321 316 317 315 306 288 230 197 205 240 181 329 298 203 183 148 149 218 155 108 128 211 250 159 100 68 77 115 100 108 143 213 152 151 156 167 173 179 188
335 335 333 331 329 323 319 316 316 312 300 170 160 158 240 253 309 295 176 233 167 151 138 200 166 161 193 224 35 91 62 111 204 147 171 117 247 161 158 158 168 176 183 188 195
333 332 330 329 327 323 317 315 312 313 114 145 125 156 268 313 275 290 168 179 146 148 194 126 124 178 56 101 41 346 150 129 173 201 145 160 220 175 170 166 174 181 188 195 197
335 333 330 328 327 324 321 310 275 30 170 204 250 9 268 261 311 255 187 155 134 112 105 134 73 107 46 93 191 185 166 117 197 195 165 165 231 163 180 177 181 189 192 194 200
333 331 331 326 327 323 334 354 9 340 198 218 201 256 284 268 280 271 116 95 121 97 158 190 133 180 186 184 192 155 171 186 164 27 41 185 163 180 187 193 197 196 197 201 205
331 331 332 326 325 320 316 19 102 195 302 227 247 248 244 53 301 272 125 139 128 192 189 98 208 193 174 175 167 168 152 208 332 146 145 132 303 199 199 202 199 201 207 204 210
329 330 334 330 321 341 273 231 355 14 248 289 218 230 222 181 218 253 155 156 148 174 201 171 231 144 142 171 132 171 175 165 218 144 64 120 316 195 213 215 213 222 219 215 209
326 327 335 335 24 320 274 39 336 253 6 276 270 267 144 144 234 216 180 148 166 186 158 216 224 163 155 173 148 159 208 164 143 141 201 164 242 226 205 211 214 218 210 214 213
324 320 329 335 279 296 214 331 312 104 326 249 269 162 158 162 197 221 173 114 181 165 130 234 200 163 169 185 165 210 153 157 160 173 117 212 82 260 172 217 225 216 208 211 208
323 312 326 338 247 244 317 332 43 51 251 301 246 341 99 238 290 66 142 110 159 178 145 219 228 164 185 187 175 142 102 62 60 99 109 217 182 257 191 213 227 211 214 207 204
319 309 305 240 229 134 287 39 52 184 302 264 312 13 213 225 215 227 152 159 165 162 211 268 246 209 150 139 64 86 77 359 20 56 208 188 147 232 219 221 221 202 206 204 200
319 307 254 203 227 310 37 63 207 228 239 287 289 322 302 6 224 160 113 187 233 121 147 172 235 191 174 166 166 179 150 157 184 183 226 95 207 244 232 230 250 215 214 200 200
319 312 263 251 187 140 97 191 200 204 227 303 331 64 330 335 67 72 202 190 189 177 188 163 253 293 191 148 146 189 154 187 118 43 94 201 284 306 226 254 207 212 180 199 198
318 320 273 21 149 100 98 223 218 214 252 48 214 224 235 41 29 31 292 225 205 181 180 215 260 222 244 158 227 169 169 100 1 143 221 258 261 232 254 243 212 208 202 206 203
14 336 300 152 113 58 189 227 228 244 223 212 211 239 118 329 189 211 235 276 201 198 179 161 138 268 142 204 211 125 149 64 122 134 170 198 258 214 216 216 212 213 211 200 195
11 327 329 8 35 162 203 200 243 245 182 235 153 214 198 201 240 224 216 219 175 129 165 208 192 218 218 225 199 191 183 163 189 231 218 177 256 220 210 205 228 225 216 185 183
313 275 303 110 230 256 301 299 291 279 269 241 242 199 186 209 241 202 216 232 236 163 208 183 223 220 290 302 225 186 171 125 119 92 189 176 256 288 245 242 225 218 180 176 184
309 323 310 32 47 33 352 271 264 278 261 222 226 267 257 261 233 257 249 278 215 223 291 192 173 193 223 227 172 190 173 177 152 142 174 210 234 249 232 221 222 223 193 181 189
233 253 240 305 326 347 257 292 279 270 291 268 283 216 211 223 224 224 245 264 264 45 351 114 193 195 225 182 178 205 175 169 176 185 160 231 197 226 210 205 208 205 187 161 178
295 323 344 294 294 309 195 278 308 328 271 260 209 266 286 227 207 232 209 201 186 5 37 346 266 196 229 206 192 227 214 176 197 112 263 273 226 223 225 108 145 190 181 199 196
299 290 269 284 309 318 241 339 310 323 262 244 283 336 288 257 316 274 227 267 216 120 260 304 168 94 247 178 160 240 232 197 192 183 166 182 225 167 186 200 211 182 192 206 210